User: anonymous   Login
Location: Radomski Observatory
(40.2854°N, 79.5145°W)
Time: 18:21:13
(UTC-04:00)
Language:

Cosmos 1072 Rocket - Orbit

View from above orbital plane
View from above orbital plane
View from above satellite
View from above satellite

Ground track
Ground track

The orbit data is extracted from the following two-line orbital elements,

1 11239U 79003B   16205.89065400 +.00000069 +00000-0 +55694-4 0  9999
2 11239 082.9403 332.2389 0039747 228.6118 247.1622 13.75800272882458
Epoch (UTC): 23 July 2016 21:22:32
Eccentricity: 0.0039747
inclination: 82.9403°
perigee height: 949 km
apogee height: 1008 km
right ascension of ascending node: 332.2389°
argument of perigee: 228.6118°
revolutions per day: 13.75800272
mean anomaly at epoch: 247.1622°
orbit number at epoch: 88245

The dashed part of the orbit path shows where the satellite is in the earth's shadow,  

DLR